Regional Weather Roundup
Issued by NWS Charleston, SC

Current Version | Previous Version | Text Only | Print | Product List | Glossary Off
Versions: 1 2 3 4 5 6 7 8 9 10 11 12 13 14 15 16 17 18 19 20 21 22 23 24 25 26 27 28 29 30 31 32 33 34 35 36 37 38 39 40 41 42 43 44 45 46 47 48 49 50

000
ASUS42 KCHS 231728
RWRCHS

REGIONAL WEATHER ROUNDUP
NATIONAL WEATHER SERVICE CHARLESTON SC
100 PM EDT SAT JUL 23 2016

NOTE: "FAIR" INDICATES FEW OR NO CLOUDS BELOW 12,000 FEET WITH NO
SIGNIFICANT WEATHER AND/OR OBSTRUCTIONS TO VISIBILITY.

NOT ALL STATIONS ARE QUALITY CONTROLLED. USE DATA WITH CAUTION...
ESPECIALLY DEWPOINT OBSERVATIONS.

SCZ027-030-031-034>040-042>050-231800-
...SOUTHEAST SOUTH CAROLINA...

CITY           SKY/WX    TMP DP  RH WIND       PRES   REMARKS
N CHARLESTON   MOSUNNY   93  69  45 VRB3      30.02F HX  98
WATERFRONT PRK   N/A     87  78  74 SE8       30.01F HX 100
MOUNT PLEASANT FAIR      90  79  70 S9        30.03S HX 105
JOHNS ISLAND   FAIR      90  79  70 S10       30.02F HX 105
PINOPOLIS        N/A     90  75  62 CALM      29.94F HX 100
MONCKS CORNER  FAIR      90  68  48 SE3       30.01F HX  93
SUMMERVILLE    FAIR      95  72  46 W6        30.03S HX 103
BEAUFORT MCAS  MOSUNNY   95  74  50 CALM      30.02F HX 105
BEAUFORT ARPT  FAIR      90  73  58 SW5       30.02S HX  98
HILTON HEAD IS SUNNY     97  77  52 S7        30.04F HX 112
WALTERBORO     MOSUNNY   95  70  43 SW6       30.03S HX 101
ALLENDALE      FAIR      93  70  46 VRB5      30.01F HX  99

...SOUTHERN MIDLANDS AND PEE DEE...

CITY           SKY/WX    TMP DP  RH WIND       PRES   REMARKS
GEORGETOWN     FAIR      86  73  66 S8        30.04R HX  93
KINGSTREE      FAIR      90  73  58 NW6       30.01S HX  98
ORANGEBURG     PTSUNNY   90  73  57 W6        30.03S HX  98
BARNWELL       NOT AVBL
AIKEN          PTSUNNY   91  70  49 S5        30.05F HX  97
MANNING        FAIR      90  73  58 S6        30.01F HX  98
COLUMBIA       MOSUNNY   95  69  42 CALM      30.00F HX 100
SUMTER         MOSUNNY   92  71  49 SW10      29.99F HAZE    HX  98
FLORENCE       MOSUNNY   92  74  55 VRB3      30.01F HX 101
MYRTLE BEACH   MOSUNNY   88  70  55 S12       30.04F HX  92
N MYRTLE BEACH MOSUNNY   86  73  65 SW14      30.03S HX  93

$$

GAZ063-065-086>088-099>101-113>116-118-119-134>141-150-231800-
...SOUTHEAST GEORGIA...

CITY           SKY/WX    TMP DP  RH WIND       PRES   REMARKS
SAVANNAH ARPT  PTSUNNY   94  72  48 VRB3      30.03F HX 102
HUNTER AAF     SUNNY     93  78  62 S3        30.00F HX 108
FORT STEWART   MOSUNNY   93  73  51 CALM      30.00F HX 102
STATESBORO     MOSUNNY   93  77  58 SE5       30.03F HX 107
SYLVANIA       NOT AVBL
CLAXTON        FAIR      95  74  50 NW5       30.02F HX 105

...CSRA...CENTRAL AND FAR SOUTHEAST GEORGIA...

CITY           SKY/WX    TMP DP  RH WIND       PRES   REMARKS
THOMSON        SUNNY     95  75  51 W7        30.06F HX 107
AUGUSTA-BUSH   MOSUNNY   92  70  48 SW5       30.01F HX  97
AUGUSTA-DANIEL MOSUNNY   94  70  45 S9        30.03F HX 100
SWAINSBORO     FAIR      93  68  43 W6        30.03F HX  97
VIDALIA        SUNNY     95  70  43 SW5       30.03F HX 101
EASTMAN        FAIR      94  58  29 W7        30.05F HX  93
HAZLEHURST     FAIR      95  71  45 CALM      30.02F HX 102
ALMA           SUNNY     91  71  51 SW5       30.04F HX  97
WAYCROSS       MOSUNNY   97  73  45 SW6       30.03F HX 107
JESUP          FAIR      95  73  49 CALM      30.03F HX 105
BAXLEY         FAIR      93  79  62 SW6       30.03F HX 110
BRUNSWICK      SUNNY     95  72  46 S6        30.04S HX 103
SAINT SIMONS   SUNNY     90  71  53 VRB6      30.04S HX  96

$$

SCZ027-028-034-036>038-045-046-048>050-GAZ119-141-231800-
...LAKE AND SUPPLEMENTAL COASTAL OBSERVATIONS...

STATION/POSITION TIME  TEMP    WIND        PRES    WAVE   SWELL
                       AIR SEA DIR/SP/G            HT/PER HT/PER/DIR
                 (UTC) (F)     (DEG/KT/KT) (MB)    (FT/S) (FT/S/D)
WINYAH BAY       1645   85     180/  6     1016.0F
LAKE MURRAY      1600   89     180/  5/  7 1015.9S
ACE BASIN NERRS  1600   90     190/  1     1017.0S
FORT PULASKI     1700   89 87  160/  6/  8 1017.4F
SAPELO ISLAND    1700   92        CALM     1017.0S

$$

ANZ835-935-AMZ111-154-330-350-352-354-370-450-454-472-231800-
...C-MAN AND BUOY OBSERVATIONS...

STATION/POSITION TIME  TEMP    WIND        PRES    WAVE   SWELL
                       AIR SEA DIR/SP/G            HT/PER HT/PER/DIR
                 (UTC) (F)     (DEG/KT/KT) (MB)    (FT/S) (FT/S/D)
BUOY 41004       1650   83 86  140/  4/  6 1016.8F   2/ 9   2/110/ 9
BUOY 41008       1650   85 87  220/  6/  8 1017.3F   2/ 9   2/110/ 9
FOLLY BEACH CMAN 1700   86     200/ 10/ 11 1017.1F
CAPERS NEARSHORE 1708   84 85  200/  8/ 12 1016.8F
FRIPP NEARSHORE  1708   85 86  210/ 10/ 12 1016.6F


STATION/POSITION TIME  TEMP    WIND        PRES    WAVE   SWELL
                       AIR SEA DIR/SP/G            HT/PER HT/PER/DIR
                 (UTC) (F)     (DEG/KT/KT) (MB)    (FT/S) (FT/S/D)
5E ST. MARYS GA  1701      88                N/A     2/ 9
FRYING PAN BUOY  1700   82 86  260/  6/  8 1016.5F
BUOY 41025       1650   84 86  220/ 12/ 14 1016.5F   2/ 8   2/120/ 8
CAPE LOOKOUT NC  1700   86     230/  8/ 10 1016.2F
BUOY 41002       1650   82 86  110/  2/  4 1017.8R   3/ 7   2/ 80/ 7
BUOY 41010       1620   84 87   30/  4/  6 1018.2R
ST AUGUSTINE FL  1700   83 87  100/  9/ 10 1018.6F


$$




USA.gov is the U.S. government's official web portal to all federal, state and local government web resources and services.